Regional Weather Roundup
Issued by NWS

Home | Current Version | Previous Version | Text Only | Print | Product List | Glossary Off
Versions: 1 2 3 4 5 6 7 8 9 10 11 12 13 14 15 16 17 18 19 20 21 22 23 24 25 26 27 28 29 30 31 32 33 34 35 36 37 38 39 40 41 42 43 44 45 46 47 48 49 50

964
ASUS45 KBOU 062007
RWRCO

WEATHER ROUNDUP FOR COLORADO
NATIONAL WEATHER SERVICE DENVER/BOULDER CO
100 PM MST SAT FEB 06 2016

NOTE: "FAIR" INDICATES FEW OR NO CLOUDS BELOW 12000 FEET WITH NO
SIGNIFICANT WEATHER AND/OR OBSTRUCTIONS TO VISIBILITY.

COZ001>005-013-030-031-062100-
...NORTHWEST COLORADO...

CITY           SKY/WX    TMP DP  RH WIND       PRES   REMARKS
CRAIG          CLOUDY    17  11  77 SW6       30.43F WCI   9
HAYDEN         SUNNY     18   9  68 E8        30.42F WCI   7
MEEKER         SUNNY     22  11  62 E3        30.43F
MOUNT WERNER   NOT AVBL
STEAMBOAT SPGS SUNNY     18   8  64 CALM      30.42F
WALDEN         CLOUDY    30  14  51 S10       30.33F WCI  21
$$

COZ006>008-011-062100-
...WEST CENTRAL VALLEYS...

CITY           SKY/WX    TMP DP  RH WIND       PRES   REMARKS
GRAND JUNCTION SUNNY     20  14  77 NW3       30.55F
MONTROSE       SUNNY     26  13  57 N5        30.51F WCI  20
EAGLE          SUNNY     19   7  58 CALM      30.50F
RIFLE          SUNNY     25   8  48 CALM      30.52F
DELTA          SUNNY     29  14  53 SW3       30.53F
NUCLA          SUNNY     30  14  51 NW3       30.52F
$$

COZ017>023-064>068-062100-
...SOUTHWEST COLORADO...

CITY           SKY/WX    TMP DP  RH WIND       PRES   REMARKS
DURANGO        SUNNY     28  12  51 NE3       30.42F
CORTEZ         SUNNY     31  18  58 S7        30.44F WCI  24
PAGOSA SPRINGS SUNNY     29  13  50 CALM      30.39F
TELLURIDE      SUNNY     38  10  31 CALM      30.41F
WOLF CREEK PAS SUNNY     30   9  40 NW10      30.42F WCI  21
$$

COZ009-010-012-014-032>034-037-058>063-062100-
...CENTRAL COLORADO...

CITY           SKY/WX    TMP DP  RH WIND       PRES   REMARKS
ASPEN          SUNNY     25  12  58 NW7       30.40F WCI  17
BUENA VISTA    SUNNY     35  15  44 SE5       30.29F WCI  30
COPPER MTN     MOSUNNY   25  12  58 W15G22    30.36S WCI  12
BERTHOUD PASS  SNOW      12   1  62 N26G54    30.23R VSB 1/4 WCI  -8
COTTONWOOD PAS SUNNY     37   9  30 SW20G30   30.31F
GUNNISON       CLOUDY     0  -6  78 SE5       30.53F WCI -10
KREMMLING      CLOUDY    14   1  57 CALM      30.45F
LEADVILLE      SUNNY     30  12  47 NW16G22   30.33F WCI  19
MONARCH PASS     N/A     14  12  92 MISG      30.42F
SALIDA         NOT AVBL
SUNLIGHT       SUNNY     28  23  80 SW3         N/A
WILKERSON PASS CLOUDY    28  10  47 W14G23    30.30F WCI  17
$$

COZ069>075-062100-
...SAN LUIS VALLEY/SANGRE DE CRISTO MOUNTAINS...

CITY           SKY/WX    TMP DP  RH WIND       PRES   REMARKS
ALAMOSA        SUNNY     28   7  41 SW5       30.37F WCI  23
LA VETA PASS   SUNNY     30  10  43 MISG      30.27F
SAGUACHE       CLOUDY    25   9  50 SE5       30.39F WCI  19
$$

COZ035-036-038>040-062100-
...NORTHERN COLORADO FRONT RANGE...

CITY           SKY/WX    TMP DP  RH WIND       PRES   REMARKS
DENVER INTL AP CLOUDY    43  20  39 W17       30.14F
DMNS CITY PARK   N/A     48  14  25 W14G25    30.13F
AURORA         PTSUNNY   45  17  31 W18G28    30.16S
FRONT RANGE AP PTSUNNY   41  21  45 MISG      30.15F
ERIE MUNI ARPT CLOUDY    32  17  54 NE3       30.14F
BOULDER MUN AP CLOUDY    48  18  29 W7        30.13F
CENTENNIAL     CLOUDY    46  15  28 NW8       30.15F
BROOMFIELD     PTSUNNY   45  18  33 W23       30.14F
FORT COLLINS   CLOUDY    37  21  52 NE7       30.15F
LONGMONT       CLOUDY    37  18  44 W3        30.16F
$$

COZ041-046-047-076>085-087-088-062100-
...PIKES PEAK/PALMER DIVIDE AND SOUTHERN FOOTHILLS...

CITY           SKY/WX    TMP DP  RH WIND       PRES   REMARKS
COLO. SPRINGS  CLOUDY    43   5  20 NE5       30.17F
A. F. ACADEMY  CLOUDY    41  13  31 S8        30.15F
SCHRIEVER AFB  FAIR      40   1  20 SW1       30.17F
ELLICOTT       NOT AVBL
FALCON         CLOUDY    41  12  30 SW6       30.18F
FORT CARSON    CLOUDY    41  17  38 CALM      30.15F
LIMON          CLOUDY    34  18  52 N6        30.15F WCI  29
MONUMENT HILL  CLOUDY    39  18  41 NW5       30.18F
TRINIDAD       SUNNY     50  10  20 CALM      30.20F
$$

COZ042>045-048>051-090-091-062100-
...NORTHEAST COLORADO...

CITY           SKY/WX    TMP DP  RH WIND       PRES   REMARKS
GREELEY ARPT   CLOUDY    28  19  69 N6        30.16F WCI  22
AKRON          CLOUDY    34  20  56 W13       30.12F WCI  25
BURLINGTON     CLOUDY    36  21  54 SW15      30.15F
WRAY           CLOUDY    44  24  45 SW7       30.12F
STERLING       CLOUDY    30  19  64 SW10      30.12F WCI  21
HOLYOKE        CLOUDY    37  27  65 W12       30.11F
FORT MORGAN    CLOUDY    29  16  58 W8        30.15F WCI  21
$$

COZ086-089-092>099-062100-
...SOUTHEAST COLORADO...

CITY           SKY/WX    TMP DP  RH WIND       PRES   REMARKS
PUEBLO         CLOUDY    43  19  38 E5        30.17F
LA JUNTA       CLOUDY    44  21  40 CALM      30.19F
LAMAR          CLOUDY    45  21  38 SW9       30.20F
SPRINGFIELD      N/A     52  10  18 S10       30.20F
$$




USA.gov is the U.S. government's official web portal to all federal, state and local government web resources and services.